Regional Weather Roundup
Issued by NWS

Home | Current Version | Previous Version | Graphics & Text | Print | Product List | Glossary On
Versions: 1 2 3 4 5 6 7 8 9 10 11 12 13 14 15 16 17 18 19 20 21 22 23 24 25 26 27 28 29 30 31 32 33 34 35 36 37 38 39 40 41 42 43 44 45 46 47 48 49 50
861
ASUS44 KJAN 300203
RWRMS

MISSISSIPPI HOURLY WEATHER ROUNDUP
NATIONAL WEATHER SERVICE JACKSON MS
900 PM CDT WED OCT 29 2014

NOTE: "FAIR: INDICATES FEW OR NO CLOUDS BELOW 12,000 FEET WITH NO
SIGNIFICANT WEATHER AND/OR OBSTRUCTIONS TO VISIBILITY.

MSZ001>002-007>008-010>013-018>021-025>028-034>036-300300-
NORTHWEST MISSISSIPPI

CITY           SKY/WX    TMP DP  RH WIND       PRES   REMARKS
CLARKSDALE     FAIR      55  52  88 CALM      30.16S
CLEVELAND      FAIR      56  49  76 CALM      30.14S
GREENWOOD      CLEAR     50  48  93 CALM      30.15R
GREENVILLE     CLEAR     53  48  83 CALM      30.15R
GRENADA        FAIR      48  46  93 CALM        N/A
OLIVE BRANCH   CLEAR     50  50 100 CALM      30.15S
OXFORD         FAIR      48  46  93 CALM      30.16S
TUNICA         CLEAR     54  48  82 CALM      30.15S
$$

MSZ003>006-009-014>017-022>024-029>033-037>039-300300-
NORTHEAST MISSISSIPPI

CITY           SKY/WX    TMP DP  RH WIND       PRES   REMARKS
COLUMBUS AFB   CLEAR     50  49  95 N1        30.12F
CORINTH        FAIR      48  45  87 CALM      30.13F
GOLDN TRIANGLE CLEAR    N/A N/A N/A CALM      30.12R
STARKVILLE     FAIR      46  46 100 CALM      30.13S
TUPELO         CLEAR     52  44  74 NE3       30.14R
$$

MSZ040-058-300300-
CENTRAL MISSISSIPPI

CITY           SKY/WX    TMP DP  RH WIND       PRES   REMARKS
JACKSON INTL   CLEAR     58  46  64 N7        30.13R
JACKSON HAWKNS CLEAR     60  44  55 N3        30.13S
MERIDIAN KEY   CLEAR     53  48  83 NW7       30.11S
MERIDIAN NAS   CLEAR     55  47  74 N3        30.11S
RAYMOND        FAIR      52  46  82 CALM      30.13S
VICKSBURG      CLEAR     52  46  80 N3        30.14R
$$

MSZ059>079-300300-
SOUTH MISSISSIPPI

CITY           SKY/WX    TMP DP  RH WIND       PRES   REMARKS
BROOKHAVEN     FAIR      57  48  72 CALM      30.13S
COLUMBIA         N/A     61  54  77 MISG      30.09R
HATTIESBURG    CLEAR     65  49  56 N8        30.10R
MCCOMB         CLEAR     64  46  52 NE6       30.10R
NATCHEZ        CLEAR     57  46  67 N3        30.13R
PINE BELT      CLEAR     59  46  63 N6        30.11S
$$

MSZ080>082-300300-
COASTAL MISSISSIPPI

CITY           SKY/WX    TMP DP  RH WIND       PRES   REMARKS
BAY ST LOUIS   MOCLDY    72  63  73 N9        30.06R
BILOXI         PTCLDY    70  68  94 NE8       30.05R
PASCAGOULA     CLOUDY    70  65  84 N9        30.05R
GULFPORT       CLOUDY    72  66  81 N8        30.05R
$$



USA.gov is the U.S. government's official web portal to all federal, state and local government web resources and services.